Regional Weather Roundup
Issued by NWS

Home | Current Version | Previous Version | Graphics & Text | Print | Product List | Glossary On
Versions: 1 2 3 4 5 6 7 8 9 10 11 12 13 14 15 16 17 18 19 20 21 22 23 24 25 26 27 28 29 30 31 32 33 34 35 36 37 38 39 40 41 42 43 44 45 46 47 48 49 50
000
ASUS45 KABQ 030401
RWRNM
NEW MEXICO REGIONAL WEATHER ROUNDUP
NATIONAL WEATHER SERVICE ALBUQUERQUE NM
1000 PM MDT MON MAY 02 2016

NOTE: "FAIR" MEANS FEW OR NO CLOUDS BELOW 12,000 FEET AGL WITH NO
       SIGNIFICANT WEATHER OR OBSTRUCTIONS TO VISION.

      THIS PRODUCT IS RELEASED AS TWO VERSIONS.  ONE VERSION NEAR
      THE TOP OF THE HOUR CONTAINING PRELIMINARY DATA FROM ALBUQUERQUE
      AND OTHER STATIONS.  A FINAL VERSION WITH ADDITIONAL DATA IS
      ISSUED ABOUT 10 MINUTES AFTER THE HOUR.

NMZ501-503-504-510>518-030500-
NORTHWEST PLATEAU/NORTHCENTRAL MOUNTAINS

CITY           SKY/WX    TMP DP  RH WIND       PRES   REMARKS
FARMINGTON     FAIR      50  38  63 NE7       30.17R
SANTA FE       FAIR      51  29  42 CALM      30.19R
TAOS           FAIR      41  30  65 CALM      30.23R
ANGEL FIRE     FAIR      34  29  80 CALM      30.26R

$$
NMZ402-403-502-505>509-030500-
WESTCENTRAL MOUNTAINS/SOUTHWEST MOUNTAINS

CITY           SKY/WX    TMP DP  RH WIND       PRES   REMARKS
GALLUP         CLOUDY    48  37  65 S10       30.22R
GRANTS         CLOUDY    43  40  91 SW3       30.24F
SILVER CITY      N/A     55  25  30 E5        30.16R

$$
NMZ407-409-411-412-030500-
SOUTHERN DESERTS

CITY           SKY/WX    TMP DP  RH WIND       PRES   REMARKS
LORDSBURG      FAIR      55  27  33 SE7       30.08R
DEMING         FAIR      58  28  32 E5        30.10R
HOLLOMAN AFB   FAIR      58  27  30 E8        30.11R
ALAMOGORDO     FAIR      55  27  33 NE7       30.13R
T OR C         FAIR      60  26  27 SE7       30.12R

$$
NMZ519>523-030500-
CENTRAL VALLEYS/CENTRAL HIGHLANDS

CITY           SKY/WX    TMP DP  RH WIND       PRES   REMARKS
ALBUQUERQUE    MOCLDY    59  30  33 SW9       30.18R
DOUBLE EAGLE   CLOUDY    54  37  54 SW12      30.20R
MORIARTY ARPT  FAIR      40  27  59 CALM      30.21R
CLINES CORNERS FAIR      40  27  59 W9        30.20R WCI  34
BELEN          CLOUDY    57  34  41 NW17      30.18R
SOCORRO        NOT AVBL

$$
NMZ524>526-539-540-030500-
SOUTHCENTRAL MOUNTAINS

CITY           SKY/WX    TMP DP  RH WIND       PRES   REMARKS
RUIDOSO        NOT AVBL

$$
NMZ527>531-030500-
NORTHEAST HIGHLANDS/NORTHEAST PLAINS

CITY           SKY/WX    TMP DP  RH WIND       PRES   REMARKS
LAS VEGAS      FAIR      43  32  65 S10       30.19R
RATON          FAIR      43  33  68 NE7       30.17R
CLAYTON        FAIR      46  35  65 CALM      30.15R

$$
NMZ532>537-030500-
EASTCENTRAL PLAINS

CITY           SKY/WX    TMP DP  RH WIND       PRES   REMARKS
TUCUMCARI      FAIR      49  39  68 E6        30.12R
CANNON AFB     FAIR      51  34  51 SE2       30.16R
CLOVIS AIRPORT FAIR      50  34  53 E5        30.17S

$$
NMZ028-029-538-030500-
SOUTHEAST PLAINS

CITY           SKY/WX    TMP DP  RH WIND       PRES   REMARKS
ROSWELL        FAIR      53  32  44 W6        30.13R
ARTESIA        FAIR      54  32  43 SW10      30.14R
CARLSBAD       FAIR      51  31  46 SW8       30.12R
HOBBS          FAIR      50  32  50 SE7       30.16R


$$



USA.gov is the U.S. government's official web portal to all federal, state and local government web resources and services.